Location: Sangrey
(48.2845°N, 109.8206°W)
Time: 07:28:22
(UTC+00:00)

N. Korean satellite - Pass Details

Date: 27 January 2022
Orbit: 438 x 478 km, 97.3° (Epoch: 21 May)

Event Time Altitude Azimuth Distance (km) Brightness Sun altitude
Rises 13:04:27 0° 7° (N) 2,637 10.3 -18.1°
Reaches altitude 10° 13:06:35 10° 2° (N) 1,748 9.3 -17.8°
Maximum altitude 13:10:14 48° 288° (WNW) 678 6.8 -17.2°
Drops below altitude 10° 13:13:50 10° 213° (SSW) 1,727 9.1 -16.6°
Sets 13:15:57 0° 208° (SSW) 2,602 10.1 -16.2°
